Torna al catalogo

SL-14 R/B

AttivoPO
NORAD 15593·ROCKET BODY·🇷🇺 Russia

Lanciato Mar 5, 1985 da Plesetsk Cosmodrome

Loading…

Prossimi Passaggi (prossime 24 ore)

TLE

AggiornatoSource: Space-Track

Epoca: Sep 14, 2026, 15:15 UTC

1 15593U 85020B   26257.63589467  .00000308  00000-0  31660-4 0  9999
2 15593  82.5403 339.3980 0011982  41.2056 319.0063 14.86952517224289

Traccia SL-14 R/B in tempo reale con AllMySat

Download on the App Store